This demonstration page uses our WeatherBlox Daily Observations layout. Learn more.

41.55636, -103.73856

Hourly Observations for April 19, 2015

Temp ( °F °C ) Dew Point ( °F °C ) Humidity (%) Winds ( mph kmh ) Pressure ( in mb ) Visibility ( mi km ) Precip ( " mm )
12:41 am 00:41 Cloudy 46 8 N/A N/A NNW 20 31 29.94 1014 10 16.0934 0 0
12:53 am 00:53 Cloudy 46 8 N/A N/A NNW 21 33 29.95 1014 10 16.0934 0 0
1:53 am 01:53 Cloudy 46 8 N/A N/A N 17 28 29.98 1015 10 16.0934 0 0
2:34 am 02:34 Cloudy 45 7 N/A N/A NNW 20 31 30.03 1017 10 16.0934 0 0
2:49 am 02:49 Cloudy 45 7 N/A N/A NW 18 30 30.03 1017 10 16.0934 0 0
2:53 am 02:53 Cloudy 45 7 N/A N/A NNW 22 35 30 1016 10 16.0934 0 0
3:53 am 03:53 Partly Cloudy 43 6 N/A N/A NNW 18 30 30.03 1017 10 16.0934 0 0
4:53 am 04:53 Mostly Cloudy 39 4 N/A N/A NNW 17 28 30.06 1018 10 16.0934 0 0
5:53 am 05:53 Clear 37 3 N/A N/A NW 20 31 30.09 1019 10 16.0934 0 0
6:53 am 06:53 Sunny 37 3 N/A N/A NW 17 28 30.11 1020 10 16.0934 0 0
7:53 am 07:53 Sunny 39 4 N/A N/A NW 20 31 30.12 1020 10 16.0934 0 0
8:53 am 08:53 Sunny 45 7 N/A N/A NW 22 35 30.11 1020 10 16.0934 0 0
9:53 am 09:53 Partly Cloudy 46 8 N/A N/A NNW 24 39 30.09 1019 10 16.0934 0 0
10:53 am 10:53 Mostly Cloudy 48 8.9 24 -4.4 39 39 NNW 28 44 30.09 1019 10 16.0934 0 0
11:53 am 11:53 Mostly Sunny 49 9.4 22 -5.6 35 35 NNW 31 50 30.07 1018 10 16.0934 0 0
12:53 pm 12:53 Partly Cloudy 50 10 22 -5.6 33 33 NNW 26 43 30.04 1017 10 16.0934 0 0
1:53 pm 13:53 Mostly Cloudy 49 9.4 22 -5.6 35 35 NNW 28 44 30.04 1017 10 16.0934 0 0
2:53 pm 14:53 Mostly Cloudy 48 8.9 21 -6.1 34 34 NW 22 35 30.03 1017 10 16.0934 0 0
3:53 pm 15:53 Cloudy 51 10.6 23 -5 33 33 NW 24 39 30.01 1016 10 16.0934 0 0
4:53 pm 16:53 Mostly Cloudy 51 10.6 21 -6.1 31 31 NNW 18 30 30.01 1016 10 16.0934 0 0
5:53 pm 17:53 Sunny 50 10 20 -6.7 30 30 NNW 23 37 30.01 1016 10 16.0934 0 0
6:53 pm 18:53 Mostly Sunny 47 8.3 21 -6.1 36 36 NNW 16 26 30.01 1016 10 16.0934 0 0
7:53 pm 19:53 Mostly Cloudy 42 5.6 24 -4.4 49 49 N 8 13 30.03 1017 10 16.0934 0 0
8:53 pm 20:53 Mostly Clear 37 2.8 24 -4.4 59 59 NNW 8 13 30.04 1017 10 16.0934 0 0
9:53 pm 21:53 Cloudy 36 2.2 27 -2.8 70 70 WNW 6 9 30.05 1018 10 16.0934 0 0
10:53 pm 22:53 Cloudy 37 2.8 26 -3.3 65 65 WNW 7 11 30.03 1017 10 16.0934 0 0
11:53 pm 23:53 Clear 33 0.6 26 -3.3 75 75 WNW 7 11 30.05 1018 10 16.0934 0 0

Powered by AerisWeather